Location: North Evanston
(42.0634°N, 87.6976°W)
Time: 20:50:41
(UTC+00:00)

Transit 2A - Pass Details

Date: 15 May 2026
Orbit: 595 x 948 km, 66.7° (Epoch: 9 June)

Event Time Altitude Azimuth Distance (km) Brightness Sun altitude
Rises 20:17:19 0° 178° (S) 3,597 9.7 50.8°
Reaches altitude 10° 20:20:11 10° 168° (SSE) 2,641 9.0 50.3°
Maximum altitude 20:25:27 30° 110° (ESE) 1,571 7.7 49.4°
Drops below altitude 10° 20:30:30 10° 51° (NE) 2,523 8.4 48.5°
Sets 20:33:10 0° 41° (NE) 3,412 9.0 48.1°
